Detroit Metro, MI

10:08 PM EST on December 11, 2017 (GMT -0500)
Detroit Metro Wayne County

Weather History for KDTW - August, 2013

Change the Weather History Date:

Thursday, August 8, 2013

  Actual Average Record
Temperature  
Mean Temperature 73 °F 73 °F  
Max Temperature 79 °F 82 °F 99 °F (2001)
Min Temperature 67 °F 64 °F 47 °F (1989)
Degree Days  
Heating Degree Days 0 0  
Month to date heating degree days 0 0  
Since 1 June heating degree days 27 37  
Since 1 July heating degree days 4 2  
Cooling Degree Days 8 8  
Month to date cooling degree days 47 64  
Year to date cooling degree days 613 550  
Since 1 June cooling degree days 510 502  
Growing Degree Days 22 (Base 50)    
Moisture  
Dew Point 64 °F    
Average Humidity 75    
Maximum Humidity 93    
Minimum Humidity 56    
Precipitation  
Precipitation 0.00 in 0.10 in 2.03 in (1942)
Month to date precipitation 0.04 0.86  
Year to date precipitation 25.04 20.29  
Snow  
Snow 0.00 in 0.00 in 0.00 in ()
Month to date snowfall 0.0 0.0  
Since 1 June snowfall 0.0 0.0  
Since 1 July snowfall 0.0 0.0  
Snow Depth 0.00 in    
Sea Level Pressure  
Sea Level Pressure 29.96 in    
Wind  
Wind Speed 8 mph (North)    
Max Wind Speed 17 mph    
Max Gust Speed 24 mph    
Visibility 9 miles    
Events      
T = Trace of Precipitation, MM = Missing Value Source: NWS Daily Summary

Daily Weather History Graph

Daily Weather History Graph

Search for Another Location

Airport or City:

Trip Planner

Search our weather history database for the weather conditions in past years. The results will help you decide how hot, cold, wet, or windy it might be!

Date:

Astronomy

Aug. 08, 2013 Rise Set
Actual Time 6:33 AM EDT 8:43 PM EDT
Civil Twilight 6:02 AM EDT 9:14 PM EDT
Nautical Twilight 5:24 AM EDT 9:52 PM EDT
Astronomical Twilight 4:42 AM EDT 10:33 PM EDT
Moon 8:22 AM EDT (8/8) 9:17 PM EDT (8/8)
Length of Visible Light 15h 11m
Length of Day
14h 09m
Waxing Crescent, 3% of the Moon is Illuminated
Aug 8
Waxing Crescent
Aug 14
First Quarter
Aug 20
Full
Aug 28
Last Quarter
Sep 5
New

Hourly Weather History & Observations

Time (EDT) Temp. Dew Point Humidity Pressure Visibility Wind Dir Wind Speed Gust Speed Precip Events Conditions
12:30 AM 75.2 °F 71.6 °F 89% 29.92 in 7.0 mi SW 4.6 mph - N/A   Overcast
12:50 AM 73.4 °F 71.6 °F 94% 29.92 in 7.0 mi Calm Calm - N/A   Overcast
12:53 AM 73.9 °F 71.1 °F 91% 29.91 in 7.0 mi SW 3.5 mph - N/A   Overcast
1:27 AM 75.2 °F 71.6 °F 89% 29.92 in 6.0 mi West 3.5 mph - N/A   Overcast
1:46 AM 73.4 °F 69.8 °F 88% 29.91 in 6.0 mi WNW 3.5 mph - N/A   Mostly Cloudy
1:53 AM 73.0 °F 70.0 °F 90% 29.90 in 6.0 mi NW 4.6 mph - N/A   Mostly Cloudy
2:53 AM 73.0 °F 69.1 °F 87% 29.91 in 8.0 mi NW 4.6 mph - N/A   Mostly Cloudy
3:53 AM 72.0 °F 66.0 °F 81% 29.92 in 10.0 mi NNW 6.9 mph - N/A   Overcast
4:53 AM 70.0 °F 64.9 °F 84% 29.93 in 10.0 mi North 12.7 mph - N/A   Mostly Cloudy
5:20 AM 69.8 °F 64.4 °F 83% 29.95 in 10.0 mi North 13.8 mph 19.6 mph N/A   Overcast
5:50 AM 68.0 °F 62.6 °F 83% 29.95 in 10.0 mi North 15.0 mph 20.7 mph N/A   Mostly Cloudy
5:53 AM 68.0 °F 62.1 °F 81% 29.94 in 10.0 mi North 13.8 mph 20.7 mph N/A   Mostly Cloudy
6:53 AM 66.9 °F 62.1 °F 84% 29.97 in 10.0 mi NNE 6.9 mph - N/A   Overcast
7:14 AM 66.2 °F 62.6 °F 88% 29.98 in 10.0 mi NNE 8.1 mph - N/A   Overcast
7:53 AM 68.0 °F 62.1 °F 81% 29.97 in 10.0 mi NNE 8.1 mph - N/A   Overcast
8:53 AM 68.0 °F 63.0 °F 84% 29.98 in 10.0 mi North 8.1 mph - N/A   Overcast
9:53 AM 69.1 °F 63.0 °F 81% 29.99 in 10.0 mi North 8.1 mph - N/A   Overcast
10:53 AM 70.0 °F 63.0 °F 78% 30.01 in 10.0 mi North 9.2 mph - N/A   Overcast
11:53 AM 71.1 °F 63.0 °F 75% 30.02 in 10.0 mi NNW 6.9 mph - N/A   Overcast
12:53 PM 73.0 °F 64.0 °F 73% 30.00 in 10.0 mi NNE 6.9 mph - N/A   Overcast
1:53 PM 73.9 °F 63.0 °F 68% 30.01 in 10.0 mi NNW 8.1 mph - N/A   Overcast
2:53 PM 75.9 °F 63.0 °F 64% 29.99 in 10.0 mi NNW 8.1 mph - N/A   Overcast
3:35 PM 77.0 °F 62.6 °F 61% 29.99 in 10.0 mi North 6.9 mph - N/A   Overcast
3:53 PM 78.1 °F 64.0 °F 62% 29.98 in 10.0 mi Variable 4.6 mph - N/A   Overcast
4:53 PM 77.0 °F 63.0 °F 62% 29.96 in 10.0 mi North 8.1 mph - N/A   Overcast
5:53 PM 77.0 °F 61.0 °F 58% 29.96 in 10.0 mi North 8.1 mph - N/A   Mostly Cloudy
6:53 PM 77.0 °F 61.0 °F 58% 29.96 in 10.0 mi North 5.8 mph - N/A   Overcast
7:53 PM 75.9 °F 61.0 °F 60% 29.97 in 10.0 mi NNE 4.6 mph - N/A   Mostly Cloudy
8:53 PM 73.0 °F 63.0 °F 71% 29.97 in 10.0 mi East 4.6 mph - N/A   Mostly Cloudy
9:53 PM 71.1 °F 62.1 °F 73% 29.98 in 10.0 mi NE 9.2 mph - N/A   Mostly Cloudy
10:53 PM 69.1 °F 59.0 °F 70% 29.99 in 10.0 mi NNE 10.4 mph - N/A   Mostly Cloudy
11:53 PM 68.0 °F 55.0 °F 63% 29.99 in 10.0 mi NNE 8.1 mph - N/A   Overcast